RYR9261 EPKK-EDDH

Flight info

Callsign RYR9261
Flight time 1h 18m
Altitude 38000
Route OMFOL T738 LASIS DCT BOLBO DCT ESIKA DCT SOGMA M748 RARUP RARUP3S
Aircraft B38M/M-SDE1FGHILORVWXY/HB1

Departure

Time 2026-04-25 14:44
Airport Kraków John Paul II International Airport (EPKK)

Arrival

Time 2026-04-25 16:02
Airport Hamburg Helmut Schmidt Airport (EDDH)
Time Latitude Longitude Altitude Speed Heading
2026-04-25 14:21 50.07499 19.80491 802 ft 0 kts 107°
2026-04-25 14:38 50.07506 19.80456 802 ft 4 kts 107°
2026-04-25 14:38 50.07512 19.80422 802 ft 4 kts 95°
2026-04-25 14:39 50.07507 19.80390 802 ft 4 kts 31°
2026-04-25 14:39 50.07482 19.80381 802 ft 4 kts
2026-04-25 14:39 50.07472 19.80377 802 ft 1 kts 17°
2026-04-25 14:41 50.07475 19.80379 802 ft 2 kts 18°
2026-04-25 14:42 50.07496 19.80390 802 ft 5 kts 18°
2026-04-25 14:42 50.07509 19.80396 802 ft 6 kts 18°
2026-04-25 14:42 50.07604 19.80418 802 ft 10 kts 348°
2026-04-25 14:42 50.07678 19.80392 802 ft 12 kts 348°
2026-04-25 14:43 50.07765 19.80363 802 ft 14 kts 348°
2026-04-25 14:43 50.07856 19.80333 803 ft 14 kts 348°
2026-04-25 14:43 50.07959 19.80297 802 ft 16 kts 347°
2026-04-25 14:43 50.08017 19.80240 802 ft 9 kts 271°
2026-04-25 14:44 50.08004 19.80140 803 ft 11 kts 258°
2026-04-25 14:44 50.07933 19.79632 803 ft 88 kts 258°
2026-04-25 14:44 50.07756 19.78347 828 ft 149 kts 261°
2026-04-25 14:44 50.07541 19.76679 1462 ft 161 kts 261°
2026-04-25 14:45 50.07311 19.74932 2352 ft 171 kts 260°
2026-04-25 14:45 50.07059 19.73027 3003 ft 191 kts 261°
2026-04-25 14:45 50.06766 19.70905 3710 ft 206 kts 259°
2026-04-25 14:45 50.06428 19.68669 4576 ft 217 kts 259°
2026-04-25 14:46 50.06084 19.66347 5521 ft 223 kts 261°
2026-04-25 14:46 50.05743 19.63947 6420 ft 230 kts 263°
2026-04-25 14:46 50.05403 19.61483 7297 ft 237 kts 261°
2026-04-25 14:46 50.05035 19.58943 8148 ft 244 kts 261°
2026-04-25 14:47 50.04659 19.56298 8888 ft 258 kts 261°
2026-04-25 14:47 50.04527 19.55369 9115 ft 263 kts 261°
2026-04-25 14:47 50.03856 19.50650 10459 ft 276 kts 261°
2026-04-25 14:47 50.03429 19.47637 10909 ft 296 kts 261°
2026-04-25 14:48 50.02978 19.44451 11361 ft 312 kts 262°
2026-04-25 14:48 50.02956 19.41025 11973 ft 317 kts 284°
2026-04-25 14:48 50.03685 19.37838 12797 ft 319 kts 292°
2026-04-25 14:48 50.04532 19.34619 13612 ft 323 kts 293°
2026-04-25 14:49 50.05415 19.31335 14394 ft 327 kts 293°
2026-04-25 14:49 50.06307 19.28062 15144 ft 330 kts 293°
2026-04-25 14:49 50.07205 19.24793 15875 ft 334 kts 293°
2026-04-25 14:49 50.08127 19.21452 16595 ft 338 kts 293°
2026-04-25 14:50 50.09059 19.18074 17311 ft 342 kts 293°
2026-04-25 14:50 50.10002 19.14657 18017 ft 346 kts 293°
2026-04-25 14:50 50.10956 19.11197 18652 ft 349 kts 293°
2026-04-25 14:50 50.11917 19.07704 19286 ft 351 kts 293°
2026-04-25 14:51 50.12881 19.04199 19899 ft 354 kts 292°
2026-04-25 14:51 50.13852 19.00661 20515 ft 356 kts 293°
2026-04-25 14:51 50.14830 18.97093 21124 ft 359 kts 292°
2026-04-25 14:51 50.15813 18.93502 21726 ft 361 kts 292°
2026-04-25 14:52 50.16802 18.89883 22330 ft 364 kts 292°
2026-04-25 14:52 50.17463 18.87464 22707 ft 366 kts 292°
2026-04-25 14:52 50.18461 18.83801 23282 ft 368 kts 292°
2026-04-25 14:52 50.19128 18.81350 23643 ft 370 kts 292°
2026-04-25 14:53 50.20476 18.76387 24295 ft 373 kts 292°
2026-04-25 14:53 50.21490 18.72651 24795 ft 374 kts 292°
2026-04-25 14:53 50.22507 18.68900 25280 ft 376 kts 292°
2026-04-25 14:53 50.23510 18.65128 25729 ft 378 kts 291°
2026-04-25 14:54 50.24508 18.61324 26176 ft 380 kts 291°
2026-04-25 14:54 50.25515 18.57489 26627 ft 382 kts 291°
2026-04-25 14:54 50.26523 18.53650 27067 ft 384 kts 291°
2026-04-25 14:54 50.27564 18.49797 27499 ft 386 kts 295°
2026-04-25 14:55 50.28788 18.46046 27936 ft 388 kts 295°
2026-04-25 14:55 50.30005 18.42267 28350 ft 390 kts 295°
2026-04-25 14:55 50.31219 18.38449 28765 ft 392 kts 295°
2026-04-25 14:55 50.32415 18.34664 29162 ft 394 kts 295°
2026-04-25 14:56 50.33628 18.30812 29552 ft 396 kts 294°
2026-04-25 14:56 50.34848 18.26929 29938 ft 398 kts 294°
2026-04-25 14:56 50.36069 18.23035 30248 ft 400 kts 294°
2026-04-25 14:56 50.37297 18.19114 30548 ft 403 kts 294°
2026-04-25 14:57 50.38553 18.15165 30772 ft 408 kts 295°
2026-04-25 14:57 50.39807 18.11130 30914 ft 413 kts 295°
2026-04-25 14:57 50.41022 18.07075 31378 ft 411 kts 295°
2026-04-25 14:57 50.42290 18.03061 31704 ft 412 kts 295°
2026-04-25 14:58 50.43552 17.99028 32102 ft 411 kts 295°
2026-04-25 14:58 50.44805 17.94996 32506 ft 411 kts 295°
2026-04-25 14:58 50.46046 17.90990 32897 ft 411 kts 295°
2026-04-25 14:58 50.47297 17.86944 33287 ft 410 kts 295°
2026-04-25 14:59 50.48545 17.82900 33628 ft 411 kts 295°
2026-04-25 14:59 50.49789 17.78859 33981 ft 411 kts 295°
2026-04-25 14:59 50.51031 17.74820 34326 ft 410 kts 295°
2026-04-25 14:59 50.52267 17.70793 34659 ft 409 kts 295°
2026-04-25 15:00 50.53499 17.66774 34982 ft 409 kts 295°
2026-04-25 15:00 50.54731 17.62748 35326 ft 408 kts 295°
2026-04-25 15:00 50.55956 17.58736 35653 ft 407 kts 295°
2026-04-25 15:00 50.57183 17.54714 35960 ft 407 kts 295°
2026-04-25 15:01 50.58400 17.50718 36271 ft 406 kts 295°
2026-04-25 15:01 50.59621 17.46702 36566 ft 406 kts 295°
2026-04-25 15:01 50.60833 17.42707 36919 ft 404 kts 295°
2026-04-25 15:01 50.62037 17.38732 37230 ft 402 kts 295°
2026-04-25 15:02 50.63239 17.34759 37502 ft 402 kts 295°
2026-04-25 15:02 50.64426 17.30828 37756 ft 401 kts 295°
2026-04-25 15:02 50.65626 17.26851 37919 ft 402 kts 295°
2026-04-25 15:02 50.66826 17.22862 37919 ft 401 kts 295°
2026-04-25 15:03 50.69205 17.14942 37917 ft 400 kts 295°
2026-04-25 15:03 50.71570 17.07038 37916 ft 400 kts 295°
2026-04-25 15:04 50.73944 16.99081 37918 ft 400 kts 295°
2026-04-25 15:04 50.76308 16.91132 37915 ft 400 kts 294°
2026-04-25 15:05 50.78666 16.83173 37918 ft 400 kts 294°
2026-04-25 15:06 50.82194 16.71220 37924 ft 400 kts 294°
2026-04-25 15:06 50.84537 16.63247 37913 ft 400 kts 294°
2026-04-25 15:07 50.86869 16.55287 37951 ft 401 kts 294°
2026-04-25 15:07 50.89200 16.47306 37927 ft 399 kts 294°
2026-04-25 15:08 50.91524 16.39317 37939 ft 399 kts 294°
2026-04-25 15:08 50.93840 16.31331 37934 ft 399 kts 294°
2026-04-25 15:09 50.96157 16.23315 37931 ft 399 kts 294°
2026-04-25 15:09 50.99597 16.11363 37936 ft 396 kts 294°
2026-04-25 15:10 51.01883 16.03391 37939 ft 396 kts 294°
2026-04-25 15:11 51.05295 15.91437 37942 ft 396 kts 294°
2026-04-25 15:11 51.07564 15.83451 37944 ft 396 kts 294°
2026-04-25 15:12 51.10958 15.71458 37954 ft 399 kts 294°
2026-04-25 15:12 51.12476 15.66076 37954 ft 399 kts 294°
2026-04-25 15:13 51.16627 15.51293 37953 ft 399 kts 293°
2026-04-25 15:14 51.18886 15.43211 37960 ft 399 kts 293°
2026-04-25 15:14 51.21138 15.35122 37945 ft 399 kts 294°
2026-04-25 15:15 51.23390 15.27007 37965 ft 400 kts 293°
2026-04-25 15:15 51.25636 15.18884 37964 ft 400 kts 293°
2026-04-25 15:16 51.27873 15.10765 37972 ft 400 kts 293°
2026-04-25 15:16 51.31206 14.98617 37965 ft 400 kts 293°
2026-04-25 15:17 51.34538 14.86412 37967 ft 399 kts 293°
2026-04-25 15:18 51.36756 14.78248 37969 ft 400 kts 293°
2026-04-25 15:18 51.40069 14.66004 37970 ft 400 kts 293°
2026-04-25 15:19 51.41542 14.60536 37974 ft 400 kts 293°
2026-04-25 15:19 51.44468 14.49645 37971 ft 400 kts 293°
2026-04-25 15:20 51.46657 14.41458 37975 ft 400 kts 293°
2026-04-25 15:20 51.48868 14.33257 37973 ft 400 kts 297°
2026-04-25 15:21 51.52061 14.25962 37962 ft 401 kts 305°
2026-04-25 15:21 51.55382 14.18766 37971 ft 401 kts 305°
2026-04-25 15:22 51.58712 14.11556 37975 ft 401 kts 305°
2026-04-25 15:22 51.62037 14.04341 37976 ft 401 kts 305°
2026-04-25 15:23 51.65352 13.97125 37971 ft 401 kts 305°
2026-04-25 15:23 51.68665 13.89894 37970 ft 401 kts 305°
2026-04-25 15:24 51.71974 13.82653 37994 ft 401 kts 305°
2026-04-25 15:24 51.74165 13.77846 37975 ft 401 kts 305°
2026-04-25 15:25 51.78577 13.68140 37976 ft 400 kts 305°
2026-04-25 15:25 51.81858 13.60898 37978 ft 399 kts 305°
2026-04-25 15:26 51.85135 13.53644 37982 ft 399 kts 305°
2026-04-25 15:26 51.88382 13.46436 37983 ft 399 kts 305°
2026-04-25 15:27 51.91638 13.39189 37981 ft 399 kts 305°
2026-04-25 15:28 51.96518 13.28289 37963 ft 399 kts 305°
2026-04-25 15:28 51.99775 13.20987 37976 ft 400 kts 305°
2026-04-25 15:29 52.03025 13.13680 37977 ft 400 kts 305°
2026-04-25 15:29 52.06278 13.06348 37962 ft 399 kts 305°
2026-04-25 15:30 52.09517 12.99025 37963 ft 399 kts 305°
2026-04-25 15:30 52.12756 12.91680 37963 ft 399 kts 305°
2026-04-25 15:31 52.15986 12.84337 37969 ft 399 kts 305°
2026-04-25 15:31 52.19216 12.76971 37963 ft 400 kts 305°
2026-04-25 15:32 52.22438 12.69603 37160 ft 398 kts 305°
2026-04-25 15:32 52.24037 12.65937 36664 ft 393 kts 305°
2026-04-25 15:32 52.25587 12.62381 36289 ft 386 kts 305°
2026-04-25 15:33 52.28666 12.55299 35417 ft 388 kts 305°
2026-04-25 15:33 52.30228 12.51699 34716 ft 390 kts 306°
2026-04-25 15:33 52.31802 12.48066 33975 ft 392 kts 306°
2026-04-25 15:33 52.33379 12.44417 33112 ft 394 kts 306°
2026-04-25 15:34 52.34964 12.40747 32381 ft 394 kts 306°
2026-04-25 15:34 52.36536 12.37102 31895 ft 389 kts 306°
2026-04-25 15:34 52.38100 12.33472 31386 ft 392 kts 306°
2026-04-25 15:34 52.38630 12.32240 31204 ft 393 kts 306°
2026-04-25 15:35 52.42791 12.22551 29717 ft 385 kts 305°
2026-04-25 15:35 52.44320 12.18982 29152 ft 380 kts 305°
2026-04-25 15:35 52.45827 12.15461 28640 ft 375 kts 305°
2026-04-25 15:36 52.48770 12.08568 27656 ft 365 kts 305°
2026-04-25 15:36 52.50215 12.05177 27184 ft 360 kts 305°
2026-04-25 15:36 52.51641 12.01826 26691 ft 356 kts 305°
2026-04-25 15:37 52.53050 11.98511 26241 ft 352 kts 305°
2026-04-25 15:37 52.54426 11.95268 25785 ft 348 kts 305°
2026-04-25 15:37 52.55802 11.92022 25331 ft 346 kts 304°
2026-04-25 15:37 52.57189 11.88746 24872 ft 351 kts 304°
2026-04-25 15:38 52.58588 11.85434 24411 ft 354 kts 304°
2026-04-25 15:38 52.59987 11.82120 23954 ft 353 kts 304°
2026-04-25 15:38 52.61384 11.78810 23484 ft 351 kts 304°
2026-04-25 15:38 52.62770 11.75518 22956 ft 348 kts 304°
2026-04-25 15:39 52.64142 11.72257 22481 ft 345 kts 304°
2026-04-25 15:39 52.65505 11.69011 22063 ft 343 kts 304°
2026-04-25 15:39 52.66856 11.65791 21631 ft 340 kts 304°
2026-04-25 15:39 52.68195 11.62596 21235 ft 338 kts 304°
2026-04-25 15:40 52.69523 11.59423 20802 ft 334 kts 304°
2026-04-25 15:40 52.69947 11.58408 20649 ft 333 kts 304°
2026-04-25 15:40 52.72125 11.53193 19980 ft 326 kts 304°
2026-04-25 15:40 52.73404 11.50124 19597 ft 322 kts 304°
2026-04-25 15:41 52.74652 11.47129 19216 ft 319 kts 304°
2026-04-25 15:41 52.75902 11.44124 18843 ft 316 kts 304°
2026-04-25 15:41 52.77137 11.41152 18469 ft 313 kts 304°
2026-04-25 15:41 52.78364 11.38195 18081 ft 310 kts 304°
2026-04-25 15:42 52.79573 11.35279 17693 ft 306 kts 304°
2026-04-25 15:42 52.80766 11.32397 17330 ft 302 kts 304°
2026-04-25 15:42 52.81955 11.29520 16957 ft 306 kts 304°
2026-04-25 15:42 52.83165 11.26591 16609 ft 310 kts 304°
2026-04-25 15:43 52.84380 11.23646 16250 ft 310 kts 303°
2026-04-25 15:43 52.85200 11.21656 16018 ft 309 kts 303°
2026-04-25 15:43 52.86392 11.18761 15668 ft 307 kts 303°
2026-04-25 15:43 52.87589 11.15851 15294 ft 305 kts 304°
2026-04-25 15:44 52.88782 11.12949 14962 ft 304 kts 303°
2026-04-25 15:44 52.89969 11.10055 14621 ft 303 kts 303°
2026-04-25 15:44 52.91149 11.07177 14280 ft 301 kts 303°
2026-04-25 15:44 52.92320 11.04317 13939 ft 299 kts 303°
2026-04-25 15:45 52.93481 11.01479 13566 ft 297 kts 303°
2026-04-25 15:45 52.94637 10.98650 13205 ft 295 kts 303°
2026-04-25 15:45 52.95783 10.95841 12855 ft 293 kts 303°
2026-04-25 15:45 52.96540 10.93985 12631 ft 292 kts 303°
2026-04-25 15:46 52.98053 10.90271 12190 ft 290 kts 303°
2026-04-25 15:46 52.99182 10.87495 11854 ft 288 kts 303°
2026-04-25 15:46 53.00300 10.84743 11514 ft 286 kts 303°
2026-04-25 15:46 53.01410 10.82009 11192 ft 285 kts 303°
2026-04-25 15:47 53.02505 10.79308 10999 ft 278 kts 303°
2026-04-25 15:47 53.03565 10.76689 10834 ft 268 kts 303°
2026-04-25 15:47 53.04570 10.74205 10673 ft 249 kts 303°
2026-04-25 15:47 53.05499 10.71910 10538 ft 230 kts 303°
2026-04-25 15:48 53.06357 10.69786 10427 ft 213 kts 303°
2026-04-25 15:48 53.07154 10.67809 10323 ft 203 kts 303°
2026-04-25 15:48 53.07969 10.65789 10243 ft 217 kts 303°
2026-04-25 15:48 53.08813 10.63694 10155 ft 225 kts 303°
2026-04-25 15:49 53.09700 10.61491 10047 ft 227 kts 303°
2026-04-25 15:49 53.10568 10.59331 9864 ft 228 kts 303°
2026-04-25 15:49 53.11447 10.57145 9594 ft 228 kts 303°
2026-04-25 15:49 53.12324 10.54960 9338 ft 227 kts 303°
2026-04-25 15:50 53.13200 10.52777 9088 ft 226 kts 303°
2026-04-25 15:50 53.14072 10.50599 8846 ft 226 kts 303°
2026-04-25 15:50 53.14942 10.48426 8602 ft 225 kts 303°
2026-04-25 15:50 53.15808 10.46264 8360 ft 224 kts 303°
2026-04-25 15:51 53.16672 10.44102 8146 ft 224 kts 303°
2026-04-25 15:51 53.17245 10.42667 7982 ft 224 kts 303°
2026-04-25 15:51 53.18398 10.39777 7660 ft 223 kts 303°
2026-04-25 15:51 53.19271 10.37637 7417 ft 223 kts 308°
2026-04-25 15:52 53.20497 10.36079 7139 ft 227 kts 328°
2026-04-25 15:52 53.21888 10.34865 6891 ft 223 kts 327°
2026-04-25 15:52 53.23254 10.33670 6641 ft 220 kts 327°
2026-04-25 15:52 53.24605 10.32500 6406 ft 217 kts 327°
2026-04-25 15:53 53.25935 10.31357 6148 ft 214 kts 327°
2026-04-25 15:53 53.27258 10.30225 5894 ft 215 kts 327°
2026-04-25 15:53 53.28611 10.29072 5679 ft 220 kts 328°
2026-04-25 15:53 53.29956 10.27928 5461 ft 216 kts 328°
2026-04-25 15:54 53.31289 10.26794 5223 ft 213 kts 328°
2026-04-25 15:54 53.32584 10.25693 4978 ft 211 kts 328°
2026-04-25 15:54 53.33887 10.24584 4806 ft 204 kts 328°
2026-04-25 15:54 53.35131 10.23526 4719 ft 198 kts 328°
2026-04-25 15:55 53.36343 10.22494 4657 ft 191 kts 327°
2026-04-25 15:55 53.37517 10.21494 4601 ft 188 kts 328°
2026-04-25 15:55 53.38680 10.20503 4360 ft 187 kts 328°
2026-04-25 15:55 53.39844 10.19509 4084 ft 188 kts 328°
2026-04-25 15:56 53.41008 10.18516 3901 ft 186 kts 328°
2026-04-25 15:56 53.42139 10.17551 3786 ft 180 kts 328°
2026-04-25 15:56 53.43242 10.16608 3685 ft 177 kts 328°
2026-04-25 15:56 53.44345 10.15665 3591 ft 178 kts 328°
2026-04-25 15:57 53.45443 10.14725 3496 ft 178 kts 329°
2026-04-25 15:57 53.46549 10.13779 3374 ft 176 kts 329°
2026-04-25 15:57 53.47608 10.12872 3229 ft 165 kts 329°
2026-04-25 15:57 53.48599 10.12023 3090 ft 154 kts 329°
2026-04-25 15:58 53.49521 10.11232 2957 ft 145 kts 329°
2026-04-25 15:58 53.50417 10.10463 2764 ft 145 kts 328°
2026-04-25 15:58 53.51302 10.09702 2566 ft 145 kts 328°
2026-04-25 15:58 53.52191 10.08941 2408 ft 142 kts 328°
2026-04-25 15:59 53.53076 10.08180 2298 ft 142 kts 328°
2026-04-25 15:59 53.53913 10.07461 2083 ft 131 kts 328°
2026-04-25 15:59 53.54725 10.06762 1897 ft 129 kts 328°
2026-04-25 15:59 53.55526 10.06073 1729 ft 129 kts 328°
2026-04-25 16:00 53.56318 10.05392 1519 ft 126 kts 328°
2026-04-25 16:00 53.56570 10.05176 1471 ft 126 kts 328°
2026-04-25 16:00 53.57866 10.04060 1148 ft 127 kts 327°
2026-04-25 16:00 53.58648 10.03397 1042 ft 124 kts 326°
2026-04-25 16:01 53.59408 10.02728 906 ft 123 kts 324°
2026-04-25 16:01 53.60166 10.02062 681 ft 125 kts 326°
2026-04-25 16:01 53.60953 10.01388 513 ft 130 kts 328°
2026-04-25 16:01 53.61761 10.00701 376 ft 130 kts 326°
2026-04-25 16:02 53.62577 9.99995 158 ft 134 kts 329°
2026-04-25 16:02 53.63388 9.99302 53 ft 119 kts 327°
2026-04-25 16:02 53.64038 9.98731 51 ft 85 kts 334°
2026-04-25 16:02 53.64394 9.98427 49 ft 34 kts 338°
2026-04-25 16:03 53.64563 9.98370 52 ft 22 kts
2026-04-25 16:03 53.64665 9.98389 54 ft 13 kts 13°
2026-04-25 16:03 53.64683 9.98511 52 ft 14 kts 135°
2026-04-25 16:03 53.64590 9.98594 51 ft 16 kts 153°
2026-04-25 16:04 53.64479 9.98690 48 ft 19 kts 152°
2026-04-25 16:04 53.64355 9.98797 54 ft 21 kts 153°
2026-04-25 16:04 53.64230 9.98905 50 ft 20 kts 153°
2026-04-25 16:04 53.64110 9.99007 53 ft 19 kts 153°
2026-04-25 16:05 53.63987 9.99112 52 ft 20 kts 153°
2026-04-25 16:05 53.63885 9.99201 53 ft 15 kts 152°
2026-04-25 16:05 53.63718 9.99443 50 ft 16 kts 126°
2026-04-25 16:06 53.63646 9.99612 53 ft 19 kts 126°
2026-04-25 16:06 53.63569 9.99789 52 ft 19 kts 126°
2026-04-25 16:06 53.63487 9.99981 52 ft 17 kts 126°
2026-04-25 16:06 53.63419 10.00045 53 ft 12 kts 210°
2026-04-25 16:07 53.63363 9.99933 53 ft 14 kts 230°
2026-04-25 16:07 53.63342 9.99890 50 ft 15 kts 231°
2026-04-25 16:07 53.63204 9.99776 52 ft 16 kts 153°
2026-04-25 16:07 53.63096 9.99870 50 ft 18 kts 153°
2026-04-25 16:08 53.62982 9.99969 51 ft 19 kts 153°
2026-04-25 16:08 53.62894 10.00046 54 ft 7 kts 156°
2026-04-25 16:08 53.62840 10.00088 54 ft 10 kts 155°
2026-04-25 16:08 53.62775 10.00144 54 ft 9 kts 153°
2026-04-25 16:09 53.62747 10.00194 51 ft 4 kts 82°
2026-04-25 16:09 53.62763 10.00246 52 ft 6 kts 60°
2026-04-25 16:09 53.62769 10.00264 54 ft 0 kts 61°
2026-04-25 16:19 53.62768 10.00264 54 ft 0 kts 61°
2026-04-25 16:19 53.62769 10.00264 54 ft 0 kts 61°
2026-04-25 16:20 53.62768 10.00264 54 ft 0 kts 61°